CW2014 Weather Reports


time (UTC)temp
F
wind
direction
speed
knots
gust
knots
rain 1hr
in
rain 24hr
in
rain mn
in
humidity
%
barometer
mb
20260901201026 95 309 0.9 4.3 0.00 0.00 0.00 45 1012.5
20260901200526 95 60 1.7 7.0 0.00 0.00 0.00 44 1012.6
20260901200051 95 308 1.7 7.0 0.00 0.00 0.00 44 1012.6
20260901195525 95 306 1.7 6.1 0.00 0.00 0.00 44 1012.7
20260901195028 96 304 0.9 4.3 0.00 0.00 0.00 43 1012.7
20260901194554 95 0 0.0 5.2 0.00 0.00 0.00 45 1012.8
20260901194025 95 82 0.9 5.2 0.00 0.00 0.00 45 1012.8
20260901193524 94 61 0.9 3.5 0.00 0.00 0.00 45 1012.9
20260901193049 93 119 0.0 5.2 0.00 0.00 0.00 47 1013.0
20260901192525 93 0 0.0 7.8 0.00 0.00 0.00 47 1013.1
20260901192026 92 337 1.7 7.8 0.00 0.00 0.00 46 1013.1
20260901191608 93 301 2.6 7.8 0.00 0.00 0.00 46 1013.2
20260901191027 93 301 0.9 6.1 0.00 0.00 0.00 47 1013.2
20260901190531 92 0 0.9 6.1 0.00 0.00 0.00 48 1013.3
20260901190050 92 211 1.7 6.1 0.00 0.00 0.00 49 1013.4
20260901185527 92 302 0.9 4.3 0.00 0.00 0.00 48 1013.5
20260901185027 92 10 1.7 6.1 0.00 0.00 0.00 48 1013.5
20260901184608 92 55 0.9 7.0 0.00 0.00 0.00 48 1013.5
20260901184030 92 335 2.6 7.0 0.00 0.00 0.00 47 1013.6
20260901183529 94 322 0.9 4.3 0.00 0.00 0.00 46 1013.7
20260901183055 93 0 0.0 3.5 0.00 0.00 0.00 47 1013.7
20260901182530 93 0 0.9 3.5 0.00 0.00 0.00 48 1013.8
20260901182032 93 5 0.0 5.2 0.00 0.00 0.00 48 1013.9
20260901181558 92 139 1.7 5.2 0.00 0.00 0.00 49 1013.9
20260901181029 91 161 0.9 6.1 0.00 0.00 0.00 50 1014.0
20260901180525 91 259 0.0 6.1 0.00 0.00 0.00 49 1014.0
20260901180048 91 229 1.7 7.0 0.00 0.00 0.00 50 1014.1
20260901175524 91 227 1.7 7.0 0.00 0.00 0.00 50 1014.1
20260901175024 90 294 0.9 5.2 0.00 0.00 0.00 51 1014.1
20260901174555 90 0 0.9 7.0 0.00 0.00 0.00 52 1014.2
20260901174024 90 327 2.6 7.0 0.00 0.00 0.00 51 1014.1
20260901173529 91 294 0.9 7.0 0.00 0.00 0.00 50 1014.2
20260901173052 91 103 1.7 7.0 0.00 0.00 0.00 50 1014.2
20260901172525 90 182 0.9 5.2 0.00 0.00 0.00 50 1014.1
20260901172029 90 56 0.9 5.2 0.00 0.00 0.00 52 1014.2
20260901171549 89 270 0.9 5.2 0.00 0.00 0.00 52 1014.1
20260901171026 89 202 1.7 5.2 0.00 0.00 0.00 52 1014.1
20260901170524 89 184 0.9 6.1 0.00 0.00 0.00 53 1014.1
20260901170051 89 199 1.7 6.1 0.00 0.00 0.00 53 1014.1
20260901165528 88 192 1.7 5.2 0.00 0.04 0.00 54 1014.0
20260901165024 89 176 0.9 5.2 0.00 0.04 0.00 54 1014.0
20260901164548 88 153 1.7 5.2 0.00 0.04 0.00 54 1014.0
20260901164023 88 0 0.9 4.3 0.00 0.04 0.00 55 1013.9
20260901163528 87 0 0.9 4.3 0.00 0.04 0.00 56 1013.9
20260901163054 87 180 1.7 4.3 0.00 0.04 0.00 56 1013.8
20260901162525 86 182 1.7 6.1 0.00 0.04 0.00 57 1013.8
20260901162024 86 210 1.7 6.1 0.00 0.04 0.00 58 1013.9
20260901161607 86 209 0.9 6.1 0.00 0.04 0.00 59 1013.8
20260901161034 85 193 1.7 7.0 0.00 0.04 0.00 59 1013.8
20260901160528 85 204 2.6 7.8 0.00 0.04 0.00 60 1013.7
20260901160106 85 161 2.6 7.8 0.00 0.04 0.00 61 1013.8
20260901155524 84 197 1.7 7.8 0.00 0.14 0.00 61 1013.7
20260901155024 84 162 1.7 7.8 0.00 0.14 0.00 61 1013.6
20260901154548 84 153 1.7 6.1 0.00 0.14 0.00 62 1013.7
20260901154026 84 168 0.9 6.1 0.00 0.14 0.00 63 1013.5
20260901153531 83 150 1.7 6.1 0.00 0.14 0.00 63 1013.5
20260901153057 82 96 0.9 7.0 0.00 0.14 0.00 65 1013.5
20260901152525 82 119 2.6 7.8 0.00 0.14 0.00 65 1013.5
20260901152028 82 151 2.6 7.8 0.00 0.14 0.00 65 1013.5
20260901151545 82 139 2.6 7.8 0.00 0.14 0.00 65 1013.5
20260901151024 81 97 2.6 7.8 0.00 0.14 0.00 67 1013.6
20260901150531 81 98 1.7 7.8 0.00 0.14 0.00 67 1013.6
20260901150053 81 169 1.7 7.8 0.00 0.14 0.00 67 1013.5
20260901145526 81 131 1.7 6.1 0.00 0.16 0.00 67 1013.5
20260901145028 81 127 0.0 3.5 0.00 0.16 0.00 68 1013.5
20260901144549 80 105 0.9 3.5 0.00 0.16 0.00 69 1013.4
20260901144025 80 113 0.0 2.6 0.00 0.16 0.00 70 1013.3
20260901143527 79 66 0.0 3.5 0.00 0.16 0.00 71 1013.3
20260901143106 79 145 0.9 3.5 0.00 0.16 0.00 71 1013.3
20260901142525 79 0 0.9 3.5 0.00 0.16 0.00 72 1013.2
20260901142027 78 57 0.9 3.5 0.00 0.16 0.00 72 1013.3
20260901141548 78 0 0.0 2.6 0.00 0.16 0.00 73 1013.3
20260901141030 78 151 0.0 1.7 0.00 0.16 0.00 73 1013.2
20260901140525 77 0 0.0 2.6 0.00 0.16 0.00 74 1013.2
20260901135527 76 0 0.0 5.2 0.00 0.16 0.00 76 1013.2
20260901135029 76 0 0.9 5.2 0.00 0.16 0.00 76 1013.1
20260901134554 76 113 0.9 5.2 0.00 0.16 0.00 77 1013.1
20260901134029 75 102 0.0 3.5 0.00 0.16 0.00 78 1013.0
20260901133525 75 79 0.9 3.5 0.00 0.16 0.00 79 1013.0
20260901133048 75 0 0.0 1.7 0.00 0.16 0.00 79 1012.9
20260901132525 74 0 0.0 0.0 0.00 0.16 0.00 80 1012.9
20260901132027 74 0 0.0 1.7 0.00 0.16 0.00 80 1012.9
20260901131552 74 0 0.0 1.7 0.00 0.16 0.00 80 1012.8
20260901131025 74 0 0.0 1.7 0.00 0.16 0.00 80 1012.7
20260901130529 74 0 0.0 0.9 0.00 0.16 0.00 80 1012.7
20260901130052 74 0 0.0 0.0 0.00 0.16 0.00 80 1012.7
20260901125524 74 0 0.0 0.0 0.00 0.16 0.00 80 1012.8
20260901125027 74 0 0.0 0.0 0.00 0.16 0.00 80 1012.8
20260901124549 74 0 0.0 0.0 0.00 0.16 0.00 80 1012.8
20260901124023 74 0 0.0 0.0 0.00 0.16 0.00 80 1012.7
20260901123525 74 0 0.0 0.0 0.00 0.16 0.00 80 1012.7
20260901123054 74 0 0.0 0.9 0.00 0.16 0.00 80 1012.8
20260901122526 74 0 0.0 2.6 0.00 0.16 0.00 80 1012.7
20260901122023 74 0 0.0 2.6 0.00 0.16 0.00 80 1012.6
20260901121547 74 150 0.0 4.3 0.00 0.16 0.00 80 1012.5
20260901121028 74 150 0.9 4.3 0.00 0.16 0.00 80 1012.6
20260901120523 74 0 0.0 0.9 0.00 0.16 0.00 80 1012.5
20260901120059 75 0 0.0 0.9 0.00 0.16 0.00 79 1012.4
20260901115527 75 0 0.0 2.6 0.00 0.16 0.00 79 1012.4
20260901115026 75 0 0.0 2.6 0.00 0.16 0.00 79 1012.4
20260901114550 75 150 0.0 2.6 0.00 0.16 0.00 79 1012.3
20260901114028 75 0 0.0 1.7 0.00 0.16 0.00 79 1012.3
20260901113525 75 0 0.0 4.3 0.00 0.16 0.00 79 1012.2
20260901113050 75 0 0.9 4.3 0.00 0.16 0.00 79 1012.3
20260901112525 75 0 0.9 4.3 0.00 0.16 0.00 79 1012.1
20260901112025 75 135 1.7 3.5 0.00 0.16 0.00 79 1012.2
20260901111555 75 146 0.0 2.6 0.00 0.16 0.00 80 1012.1
20260901111029 75 147 0.0 2.6 0.00 0.16 0.00 80 1012.0
20260901110525 75 147 0.9 1.7 0.00 0.16 0.00 80 1012.2
20260901110052 75 0 0.0 1.7 0.00 0.16 0.00 80 1012.1
20260901105525 75 137 0.0 1.7 0.00 0.16 0.00 80 1012.1
20260901105028 75 137 0.0 1.7 0.00 0.16 0.00 80 1012.1
20260901104550 75 0 0.0 1.7 0.00 0.16 0.00 80 1012.1
20260901104024 75 0 0.0 1.7 0.00 0.16 0.00 80 1012.2
20260901103523 75 0 0.0 1.7 0.00 0.16 0.00 80 1012.2
20260901103055 75 0 0.0 0.9 0.00 0.16 0.00 80 1012.3
20260901102523 75 0 0.0 0.9 0.00 0.16 0.00 80 1012.3
20260901102024 75 0 0.0 1.7 0.00 0.16 0.00 80 1012.3
20260901101545 75 0 0.0 1.7 0.00 0.16 0.00 80 1012.3
20260901101024 75 0 0.0 2.6 0.00 0.16 0.00 79 1012.3
20260901100525 75 137 0.9 2.6 0.00 0.16 0.00 79 1012.3
20260901100054 75 137 0.0 2.6 0.00 0.16 0.00 79 1012.2
20260901095525 75 0 0.0 0.0 0.00 0.16 0.00 79 1012.2
20260901095024 75 0 0.0 0.0 0.00 0.16 0.00 79 1012.3
20260901094547 75 0 0.0 0.0 0.00 0.16 0.00 78 1012.2
20260901094024 75 0 0.0 0.0 0.00 0.16 0.00 78 1012.3
20260901093525 75 0 0.0 0.0 0.00 0.16 0.00 78 1012.4
20260901093051 75 0 0.0 0.0 0.00 0.16 0.00 78 1012.5
20260901092533 75 0 0.0 0.0 0.00 0.16 0.00 78 1012.4
20260901092029 75 0 0.0 0.0 0.00 0.16 0.00 78 1012.5
20260901091548 76 0 0.0 0.0 0.00 0.16 0.00 78 1012.4
20260901091024 75 0 0.0 2.6 0.00 0.16 0.00 78 1012.4
20260901090524 76 0 0.0 2.6 0.00 0.16 0.00 77 1012.4
20260901090048 76 117 0.0 2.6 0.00 0.16 0.00 77 1012.5
20260901085523 76 0 0.0 0.9 0.00 0.16 0.00 77 1012.5
20260901085023 76 0 0.0 0.9 0.00 0.16 0.00 77 1012.6
20260901084555 76 0 0.0 0.9 0.00 0.16 0.00 77 1012.5
20260901084027 76 0 0.0 0.9 0.00 0.16 0.00 77 1012.6
20260901083526 76 0 0.0 0.9 0.00 0.16 0.00 77 1012.6
20260901083050 76 0 0.0 1.7 0.00 0.16 0.00 77 1012.6
20260901082526 76 0 0.0 2.6 0.00 0.16 0.00 76 1012.6
20260901082028 76 0 0.0 2.6 0.00 0.16 0.00 76 1012.6
20260901081550 76 0 0.9 2.6 0.00 0.16 0.00 76 1012.5
20260901081025 76 0 0.0 2.6 0.00 0.16 0.00 76 1012.5
20260901080524 76 111 0.9 2.6 0.00 0.16 0.00 75 1012.5
20260901080053 76 153 0.0 2.6 0.00 0.16 0.00 75 1012.5
20260901075524 76 153 0.9 2.6 0.00 0.27 0.00 75 1012.6
20260901075025 76 153 0.0 3.5 0.00 0.27 0.00 75 1012.5
20260901074549 76 149 0.0 3.5 0.00 0.27 0.00 74 1012.6
20260901074023 77 163 0.9 4.3 0.00 0.27 0.00 74 1012.5
20260901073524 77 148 0.9 4.3 0.00 0.27 0.00 73 1012.5
20260901073046 77 0 0.9 4.3 0.00 0.27 0.00 73 1012.5
20260901072524 77 0 0.9 4.3 0.00 0.27 0.00 72 1012.5
20260901072027 77 161 1.7 5.2 0.00 0.27 0.00 72 1012.5
20260901071553 77 150 0.9 5.2 0.00 0.27 0.00 72 1012.4
20260901071027 77 142 1.7 5.2 0.00 0.27 0.00 71 1012.4
20260901070527 78 161 2.6 6.1 0.00 0.27 0.00 71 1012.3
20260901070051 78 142 2.6 6.1 0.00 0.27 0.00 71 1012.3
20260901065525 78 147 2.6 6.1 0.00 0.27 0.27 70 1012.3
20260901065026 78 193 1.7 4.3 0.00 0.27 0.27 70 1012.3
20260901064547 78 146 1.7 5.2 0.00 0.27 0.27 70 1012.2
20260901064028 78 142 1.7 5.2 0.00 0.27 0.27 70 1012.2
20260901063525 78 154 1.7 4.3 0.00 0.27 0.27 70 1012.2
20260901063104 78 154 0.9 2.6 0.00 0.27 0.27 70 1012.3
20260901062529 78 154 0.9 3.5 0.00 0.27 0.27 70 1012.2
20260901062027 78 154 0.9 7.0 0.00 0.27 0.27 71 1012.1
20260901061602 78 146 1.7 7.0 0.00 0.27 0.27 71 1012.0
20260901061025 78 138 1.7 6.1 0.00 0.27 0.27 72 1012.1
20260901060523 78 112 0.9 5.2 0.00 0.27 0.27 72 1012.0
20260901060056 78 149 1.7 4.3 0.00 0.27 0.27 71 1012.0
20260901055524 79 150 1.7 4.3 0.00 0.27 0.27 71 1012.0
20260901055028 79 76 0.9 6.1 0.00 0.27 0.27 70 1012.0
20260901054551 79 136 1.7 6.1 0.00 0.27 0.27 70 1011.9
20260901054025 79 155 1.7 5.2 0.00 0.27 0.27 69 1012.0
20260901053530 79 159 2.6 6.1 0.00 0.27 0.27 69 1012.0
20260901053105 79 132 1.7 6.1 0.00 0.27 0.27 69 1011.9
20260901052523 79 133 1.7 6.1 0.00 0.27 0.27 68 1012.0
20260901052024 80 138 1.7 6.1 0.00 0.27 0.27 68 1012.0
20260901051550 80 148 0.9 7.0 0.00 0.27 0.27 67 1012.0
20260901051024 80 148 1.7 7.8 0.00 0.27 0.27 66 1012.0
20260901050527 80 160 2.6 7.8 0.00 0.27 0.27 65 1012.0
20260901050052 80 159 1.7 5.2 0.00 0.27 0.27 64 1012.0
20260901045530 80 149 1.7 4.3 0.00 0.27 0.27 63 1012.1
20260901045028 81 147 0.9 3.5 0.00 0.27 0.27 63 1012.0
20260901044600 81 147 0.9 3.5 0.00 0.27 0.27 62 1012.0
20260901044027 81 0 0.9 3.5 0.00 0.27 0.27 62 1011.9
20260901043523 81 159 0.9 7.0 0.00 0.27 0.27 61 1011.9
20260901043052 81 142 1.7 7.8 0.00 0.27 0.27 60 1012.0
20260901042523 81 141 2.6 7.8 0.00 0.27 0.27 60 1011.9
20260901042024 81 149 3.5 7.8 0.00 0.27 0.27 60 1011.9
20260901041548 81 192 2.6 7.0 0.00 0.27 0.27 60 1011.8
20260901041027 82 156 1.7 7.0 0.00 0.27 0.27 59 1012.0
20260901040527 82 178 1.7 6.1 0.00 0.27 0.27 58 1012.0
20260901040055 82 147 0.9 5.2 0.00 0.27 0.27 58 1011.9
20260901035526 82 148 0.9 6.1 0.00 0.27 0.27 57 1011.9
20260901035026 82 141 2.6 6.1 0.00 0.27 0.27 57 1011.9
20260901034551 82 169 1.7 6.1 0.00 0.27 0.27 56 1011.8
20260901034028 82 155 1.7 6.1 0.00 0.27 0.27 56 1011.7
20260901033524 83 157 1.7 6.1 0.00 0.27 0.27 56 1011.6
20260901033048 83 170 2.6 6.1 0.00 0.27 0.27 55 1011.6
20260901032524 83 148 1.7 6.1 0.00 0.27 0.27 55 1011.6
20260901032024 83 145 1.7 6.1 0.00 0.27 0.27 55 1011.5
20260901031554 83 140 2.6 6.1 0.00 0.27 0.27 54 1011.4
20260901031027 83 174 1.7 6.1 0.00 0.27 0.27 54 1011.4
20260901030524 83 161 1.7 6.1 0.00 0.27 0.27 53 1011.3
20260901030055 83 173 2.6 7.0 0.00 0.27 0.27 52 1011.3
20260901025529 84 177 3.5 7.0 0.00 0.27 0.27 52 1011.2
20260901025025 84 161 1.7 6.1 0.00 0.27 0.27 51 1011.2
20260901024554 84 183 2.6 6.1 0.00 0.27 0.27 50 1011.1
20260901024029 84 155 0.9 4.3 0.00 0.27 0.27 50 1011.0
20260901023526 84 172 0.9 4.3 0.00 0.27 0.27 50 1011.1
20260901023049 84 161 0.9 5.2 0.00 0.27 0.27 49 1011.2
20260901022527 84 165 1.7 5.2 0.00 0.27 0.27 50 1011.1
20260901022031 84 152 0.9 5.2 0.00 0.27 0.27 50 1010.8
20260901021550 84 0 0.9 5.2 0.00 0.27 0.27 50 1010.6
20260901021028 84 155 1.7 6.1 0.00 0.27 0.27 50 1010.6
20260901020526 84 157 0.9 6.1 0.00 0.27 0.27 51 1010.6
20260901020105 85 144 1.7 6.1 0.00 0.27 0.27 51 1010.6
20260901015524 85 159 1.7 5.2 0.00 0.27 0.27 52 1010.4
20260901015027 85 159 0.9 7.0 0.00 0.27 0.27 52 1010.4
20260901014548 85 144 1.7 7.0 0.00 0.27 0.27 51 1010.5
20260901014024 86 184 1.7 7.0 0.00 0.27 0.27 51 1010.5
20260901013531 86 151 0.9 3.5 0.00 0.27 0.27 48 1010.3
20260901013050 86 107 0.9 6.1 0.00 0.27 0.27 47 1010.4
20260901012524 87 138 0.9 6.1 0.00 0.27 0.27 46 1010.4
20260901012025 87 97 0.9 5.2 0.00 0.27 0.27 46 1010.5
20260901011550 87 106 1.7 5.2 0.00 0.27 0.27 47 1010.5
20260901011024 87 86 1.7 6.1 0.00 0.27 0.27 47 1010.4
20260901010527 87 100 1.7 8.7 0.00 0.27 0.27 48 1010.5
20260901010049 87 65 1.7 8.7 0.00 0.27 0.27 48 1010.6
20260901005528 87 61 1.7 7.8 0.00 0.27 0.27 48 1010.6
20260901005026 87 57 1.7 6.1 0.00 0.27 0.27 48 1010.7
20260901004556 87 105 0.9 6.1 0.00 0.27 0.27 50 1010.7
20260901004024 87 119 1.7 5.2 0.00 0.27 0.27 50 1010.9
20260901003525 87 79 1.7 6.1 0.00 0.27 0.27 51 1010.9
20260901003053 87 72 1.7 7.0 0.00 0.27 0.27 51 1010.9
20260901002525 87 88 1.7 7.0 0.00 0.27 0.27 51 1010.8
20260901002029 87 111 1.7 7.0 0.00 0.27 0.27 50 1011.0
20260901001549 87 66 1.7 6.1 0.00 0.27 0.27 50 1010.9
20260901001026 87 92 1.7 5.2 0.00 0.27 0.27 51 1010.8
20260901000524 87 342 0.9 5.2 0.00 0.27 0.27 51 1011.1
20260901000105 87 89 1.7 5.2 0.00 0.27 0.27 51 1011.0
20260831235525 87 165 1.7 5.2 0.00 0.27 0.27 51 1011.1
20260831235027 87 82 0.9 7.0 0.00 0.27 0.27 51 1011.2
20260831234550 87 0 1.7 7.8 0.00 0.27 0.27 51 1011.1
20260831234026 87 141 1.7 7.8 0.00 0.27 0.27 50 1011.1
20260831233527 87 142 1.7 8.7 0.00 0.27 0.27 50 1011.0
20260831233054 87 68 2.6 8.7 0.00 0.27 0.27 49 1011.1
20260831232524 87 55 1.7 8.7 0.00 0.27 0.27 49 1011.0
20260831232024 87 103 1.7 8.7 0.00 0.27 0.27 49 1011.1
20260831231555 87 190 2.6 9.6 0.00 0.27 0.27 50 1011.1
20260831231024 87 0 3.5 9.6 0.00 0.27 0.27 51 1011.1
20260831230529 87 162 1.7 9.6 0.00 0.27 0.27 51 1011.1
20260831230055 86 122 1.7 10.4 0.00 0.27 0.27 50 1011.4
20260831225526 86 176 3.5 10.4 0.00 0.27 0.27 50 1011.5
20260831225027 86 140 2.6 8.7 0.00 0.27 0.27 51 1011.6
20260831224552 86 194 3.5 10.4 0.00 0.27 0.27 52 1011.7
20260831224024 86 129 3.5 12.2 0.00 0.27 0.27 51 1011.8
20260831223529 86 181 4.3 12.2 0.00 0.27 0.27 50 1011.8
20260831223055 86 127 2.6 11.3 0.00 0.27 0.27 51 1011.9
20260831222530 86 153 5.2 11.3 0.00 0.27 0.27 50 1012.1
20260831222029 86 101 3.5 9.6 0.00 0.27 0.27 51 1012.2
20260831221552 86 187 2.6 10.4 0.00 0.27 0.27 51 1012.2
20260831221028 86 159 3.5 10.4 0.00 0.27 0.27 51 1012.5
20260831220527 86 173 3.5 13.9 0.00 0.27 0.27 53 1012.8
20260831220052 86 196 3.5 13.9 0.00 0.27 0.27 53 1012.8
20260831215526 86 145 1.7 13.9 0.00 0.27 0.27 54 1012.9
20260831215025 86 145 4.3 13.9 0.00 0.27 0.27 52 1013.1
20260831214553 86 153 1.7 10.4 0.00 0.27 0.27 53 1013.2
20260831214023 86 161 2.6 10.4 0.00 0.27 0.27 53 1013.3
20260831213531 85 127 3.5 10.4 0.00 0.27 0.27 51 1013.5
20260831213056 85 183 3.5 9.6 0.00 0.27 0.27 52 1013.6
20260831212522 85 118 2.6 10.4 0.00 0.27 0.27 53 1013.7
20260831212025 85 163 4.3 10.4 0.00 0.27 0.27 54 1013.7
20260831211553 85 85 3.5 10.4 0.00 0.27 0.27 56 1013.8
20260831211025 85 167 4.3 13.0 0.00 0.27 0.27 55 1013.9
20260831210529 84 165 3.5 13.0 0.00 0.27 0.27 56 1013.9
20260831210050 84 121 5.2 12.2 0.00 0.27 0.27 57 1014.0
20260831205526 84 137 4.3 10.4 0.00 0.27 0.27 58 1014.0
20260831205025 83 99 2.6 10.4 0.00 0.27 0.27 62 1014.1
20260831204548 83 126 5.2 9.6 0.00 0.27 0.27 63 1014.1
20260831204027 83 103 3.5 10.4 0.00 0.27 0.27 64 1014.2
20260831203528 82 121 3.5 10.4 0.00 0.27 0.27 66 1014.3
20260831203046 81 65 2.6 12.2 0.00 0.27 0.27 68 1014.4
20260831202524 80 146 3.5 13.0 0.00 0.27 0.27 70 1014.3
20260831202026 79 145 5.2 13.0 0.00 0.27 0.27 71 1014.5
20260831201551 78 170 5.2 11.3 0.00 0.27 0.27 72 1014.5